DUPLEX

Last updated on Wed Aug 26 2026 00:02:34 GMT+0000 (Coordinated Universal Time)

1 66906U 98067XS 26237.20267875 .00042873 00000+0 38582-3 0 9996 2 66906 51.6254 299.6298 0003982 56.1039 304.0335 15.67762663 41465
UTC large
Height (km)
Speed (km/s)
/
Latitude / Longitude
Inclination (degrees)
Orbital Period (minutes)
Azimuth
Elevation
Range (km)
Doppler Factor

Next 0 passes for location: London (51.5072 / 0.1276)

No passes found over London.
DUPLEX